Hourly Weather Roundup
Issued by NWS Central Illinois

Home | Current Version | Previous Version | Text Only | Print | Product List | Glossary On
Versions: 1 2 3 4 5 6 7 8 9 10 11 12 13 14 15 16 17 18 19 20 21 22 23 24 25 26 27 28 29 30 31 32 33 34 35 36 37 38 39 40 41 42 43 44 45 46 47 48 49 50
000
NZUS43 KILX 031310
HWRILX

AREA WEATHER ROUNDUP
NATIONAL WEATHER SERVICE, LINCOLN IL
700 AM CST TUE MAR 03 2015


CITY           SKY/WX    TMP DP  RH WIND       PRES   REMARKS
BLOOMINGTON    CLOUDY    28  27  96 S17       29.87F FOG     WCI  16
CHAMPAIGN      CLOUDY    28  24  85 SE18      29.92F FOG     WCI  15
DECATUR        CLOUDY    30  27  88 S12       29.89F FOG     WCI  20
FLORA          DRIZZLE   33  28  82 S12       29.97F WCI  25
GALESBURG      MIX PCPN  28  28  97 SE10      29.81F WCI  19
JACKSONVILLE   CLOUDY    32  28  83 SE10      29.85F HAZE    WCI  24
LACON          MIX PCPN  29  26  91 S10       29.84F WCI  19
LAWRENCEVILLE  CLOUDY    34  27  75 SE12      30.00F HAZE    WCI  25
LITCHFIELD     CLOUDY    31  29  90 S13       29.88F FOG     WCI  22
$$


CITY           SKY/WX    TMP DP  RH WIND       PRES   REMARKS
LINCOLN        DRIZZLE   31  29  90 S13       29.91F WCI  21
MACOMB         CLOUDY    29  28  98 S13       29.86S FOG     WCI  19
MATTOON        FRZ RAIN  30  26  85 SE15      29.92F FOG     WCI  19
MT CARMEL AP   CLOUDY    36  28  75 SE13      29.99F WCI  27
OLNEY-NOBLE AP MIX PCPN  34  28  80 S8        29.98F WCI  27
PARIS          MIX PCPN  30  26  85 SE7       29.98F WCI  23
PEORIA         FRZ RAIN  30  27  88 S16       29.89S FOG     WCI  19
PONTIAC        CLOUDY    29  28  96 SE13      29.90F FOG     WCI  19
RANTOUL        CLOUDY    30  27  89 SE16      29.93F FOG     WCI  18
ROBINSON       CLOUDY    32  26  76 SE8       30.01F WCI  25
SPRINGFIELD    CLOUDY    31  26  82 SE15      29.87F WCI  20
TAYLORVILLE    MIX PCPN  32  28  86 S13       29.90F WCI  22
$$

...REGIONAL REPORTS...


CITY           SKY/WX    TMP DP  RH WIND       PRES   REMARKS
CHICAGO O`HARE FRZ DRZL  25  23  92 SE14      29.89F FOG     WCI  13
KANKAKEE       MIX PCPN  29  28  93 SE12G20   29.93F WCI  20
MOLINE         FRZ RAIN  29  26  89 S15G25    29.77F FOG     WCI  18
MOUNT VERNON   CLOUDY    36  28  75 S10       29.96F WCI  28
PITTSFIELD     CLOUDY    31  28  85 SE9       29.84F WCI  23
QUINCY         CLOUDY    30  27  88 S13       29.79F FOG     WCI  20
ROCKFORD       FRZ RAIN  29  25  85 S20       29.84F FOG     WCI  16
$$


CITY           SKY/WX    TMP DP  RH WIND       PRES   REMARKS
BURLINGTON     CLOUDY    30  28  92 S18       29.77F FOG     WCI  18
CEDAR RAPIDS   CLOUDY    29  27  92 S16G26    29.71F WCI  17
DES MOINES     FRZ DRZL  31  29  92 S8        29.69F FOG     WCI  23
KIRKSVILLE     FOG       31  31 100 S10G20    29.74F VSB 1   WCI  22
OTTUMWA        CLOUDY    29  27  92 S12       29.72F FOG     WCI  19
ST LOUIS       LGT RAIN  35  28  75 SE10      29.89F WCI  27
$$


CITY           SKY/WX    TMP DP  RH WIND       PRES   REMARKS
TERRE HAUTE    CLOUDY    31  23  72 SE10      30.00F WCI  22
EVANSVILLE     LGT RAIN  35  29  78 SE6       30.03F WCI  30
INDIANAPOLIS   CLOUDY    28  19  69 SE10      30.02F WCI  19
LAFAYETTE      CLOUDY    27  22  81 SE10      29.98F WCI  17
MADISON        LGT SNOW  24  20  84 SE15      29.80F FOG     WCI  11
MILWAUKEE      LGT SNOW  26  22  84 S15       29.87F VSB 3/4 WCI  14
$$




USA.gov is the U.S. government's official web portal to all federal, state and local government web resources and services.